Regional Weather Roundup
Issued by NWS Midland/Odessa, TX

Skip options and go directly to product.
Home | Oldest Version | Previous Version | Current Version | All | Text Only | Save Text | Print | Product List | Glossary On

Skip product version selection by date and time.   
670
ASUS44 KMAF 111910
RWRMAF
MIDLAND AREA WEATHER ROUNDUP
NATIONAL WEATHER SERVICE MIDLAND TX
100 PM CST THU FEB 11 2016

...IN SOUTHWEST TEXAS AND SOUTHEAST NEW MEXICO...

CITY           SKY/WX    TMP DP  RH WIND       PRES   REMARKS
ALPINE         SUNNY     72  12  10 N3        30.28F
ANDREWS        FAIR      62  24  22 N10       30.18F
ARTESIA        SUNNY     64  23  20 NE14      30.23F
BIG SPRING     SUNNY     63  24  23 W6        30.17F
CARLSBAD       SUNNY     65  22  19 NW16G24   30.21F
DRYDEN           N/A     79  19  10 SW16G25   30.12F
FORT STOCKTON  SUNNY     72  21  14 NW14      30.18F
GUAD PASS      SUNNY     62  16  16 SW15      30.28F
HOBBS          SUNNY     63  23  22 N10G16    30.21F
MARFA          SUNNY     71  15  11 NW10      30.26F
MIDLAND AIRPK  SUNNY     66  25  21 W9        30.17S
MIDLAND INTL   SUNNY     69  24  18 W12       30.15F
ODESSA         SUNNY     69  22  16 NW10      30.16F
PECOS          SUNNY     71  22  16 NW15      30.18F
PRESIDIO       FAIR      69  19  15 W6        30.22F
SEMINOLE       SUNNY     61  25  25 NE8       30.19F
SNYDER           N/A     63  29  27 N7        30.15F
WINK           SUNNY     72  22  15 N9        30.15F
$$
...OTHER STATIONS IN TEXAS...

CITY           SKY/WX    TMP DP  RH WIND       PRES   REMARKS
ABILENE        SUNNY     67  31  26 NW7       30.12F
AMARILLO       SUNNY     61  22  22 SE5       30.21F
AUSTIN         SUNNY     77  39  25 S15G23    30.11F
BROWNSVILLE    SUNNY     76  49  38 S25G33    30.18F
CORPUS CHRISTI SUNNY     81  43  26 S14G24    30.16F
DALLAS FTW     PTSUNNY   71  28  20 NW10      30.08F
DEL RIO        SUNNY     74  29  19 CALM      30.12F
EL PASO        SUNNY     63  19  18 S5        30.26F
HOUSTON INT    SUNNY     76  44  32 SW13G18   30.15F
LUBBOCK        MOSUNNY   64  26  23 NE12G17   30.18F
SAN ANGELO     SUNNY     81  23  11 W13G18    30.09F
SAN ANTONIO    SUNNY     75  39  27 SW13      30.14F
WACO           SUNNY     79  34  19 VRB6      30.08F
WICHITA FALLS  NOT AVBL
$$
...OTHER LOCATIONS IN NEW MEXICO...

CITY           SKY/WX    TMP DP  RH WIND       PRES   REMARKS
ALAMAGORDO     SUNNY     64  18  16 CALM      30.27F
ALBUQUERQUE    SUNNY     56  19  23 VRB3      30.35F
CANNON AFB     NOT AVBL
CLOVIS         SUNNY     63  23  22 NE8       30.25F
HOLLOMAN AFB   SUNNY     66  14  13 NW13      30.25F
ROSWELL        SUNNY     68  16  13 N14       30.22F
RUIDOSO        SUNNY     63   1   8 NW12      30.34F
SANTA FE       SUNNY     53  19  26 N13       30.33F
TRUTH OR CONSE SUNNY     61  16  17 VRB6      30.30F
TUCUMCARI      SUNNY     62  18  18 SW5       30.22F
$$

USA.gov is the U.S. government's official web portal to all federal, state and local government web resources and services.